Simultaneous Nadir Overpasses (SNOs) Predictions

Prediction of SNOs between METOP-A and TERRA Satellite Orbit:

Table of predicted SNOs for the next 14.0 days since TLE Epoch: 2/9/2019
Index Date (METOP-A) Time (METOP-A) Lat,Lon (METOP-A) SZA (METOP-A ) Date (TERRA) Time (TERRA) Lat,Lon (TERRA) SZA (TERRA ) Distance(km) Time Diff (sec)
1 02/09/2019 05:57:21 81.45, 140.56 98.74 02/09/2019 05:57:28 81.44, 140.59 98.74 0.79 7
2 02/09/2019 06:48:00 -81.44, -51.54 81.22 02/09/2019 06:46:54 -81.45, -51.53 81.24 0.98 66
3 02/12/2019 01:31:35 81.44,-152.89 97.84 02/12/2019 01:31:44 81.44,-153.05 97.82 2.91 9
4 02/12/2019 02:22:14 -81.44, 15.02 82.12 02/12/2019 02:21:10 -81.45, 14.86 82.16 2.70 64
5 02/14/2019 21:05:49 81.44, -86.35 96.91 02/14/2019 21:05:59 81.45, -86.24 96.93 2.20 10
6 02/14/2019 21:56:29 -81.44, 81.16 83.09 02/14/2019 21:55:26 -81.45, 81.32 83.10 2.75 63
7 02/17/2019 16:40:03 81.45, -20.23 95.91 02/17/2019 16:40:15 81.44, -20.13 95.92 1.79 12
8 02/17/2019 17:30:43 -81.44, 147.30 84.08 02/17/2019 17:29:42 -81.44, 147.46 84.10 2.85 61
9 02/20/2019 12:14:17 81.45, 46.27 94.93 02/20/2019 12:14:31 81.44, 46.43 94.95 2.55 14




NCC Satellite Simultaneous Nadir Overpasses (SNOs) Prediction Service
